Year,Month,Day,Hour,Minute,Value (Times are PST for temperature in C)
2018,06,19,00,00,19.80
2018,06,19,00,01,19.80
2018,06,19,00,02,19.80
2018,06,19,00,03,19.80
2018,06,19,00,04,19.80
2018,06,19,00,05,19.80
2018,06,19,00,06,19.80
2018,06,19,00,07,19.70
2018,06,19,00,08,19.70
2018,06,19,00,09,19.70
2018,06,19,00,10,19.70
2018,06,19,00,11,19.70
2018,06,19,00,12,19.60
2018,06,19,00,13,19.60
2018,06,19,00,14,19.60
2018,06,19,00,15,19.60
2018,06,19,00,16,19.60
2018,06,19,00,17,19.60
2018,06,19,00,18,19.60
2018,06,19,00,19,19.60
2018,06,19,00,20,19.60
2018,06,19,00,21,19.70
2018,06,19,00,22,19.70
2018,06,19,00,23,19.70
2018,06,19,00,24,19.70
2018,06,19,00,25,19.70
2018,06,19,00,26,19.70
2018,06,19,00,27,19.80
2018,06,19,00,28,19.80
2018,06,19,00,29,19.80
2018,06,19,00,30,19.80
2018,06,19,00,31,19.80
2018,06,19,00,32,19.80
2018,06,19,00,33,19.80
2018,06,19,00,34,19.80
2018,06,19,00,35,19.80
2018,06,19,00,36,19.80
2018,06,19,00,37,19.80
2018,06,19,00,38,19.80
2018,06,19,00,39,19.80
2018,06,19,00,40,19.80
2018,06,19,00,41,19.80
2018,06,19,00,42,19.80
2018,06,19,00,43,19.80
2018,06,19,00,44,19.80
2018,06,19,00,45,19.80
2018,06,19,00,46,19.80
2018,06,19,00,47,19.70
2018,06,19,00,48,19.70
2018,06,19,00,49,19.70
2018,06,19,00,50,19.70
2018,06,19,00,51,19.70
2018,06,19,00,52,19.60
2018,06,19,00,53,19.60
2018,06,19,00,54,19.60
2018,06,19,00,55,19.60
2018,06,19,00,56,19.50
2018,06,19,00,57,19.50
2018,06,19,00,58,19.40
2018,06,19,00,59,19.40
2018,06,19,01,00,19.40
2018,06,19,01,01,19.40
2018,06,19,01,02,19.40
2018,06,19,01,03,19.40
2018,06,19,01,04,19.40
2018,06,19,01,05,19.30
2018,06,19,01,06,19.30
2018,06,19,01,07,19.30
2018,06,19,01,08,19.30
2018,06,19,01,09,19.20
2018,06,19,01,10,19.20
2018,06,19,01,11,19.20
2018,06,19,01,12,19.10
2018,06,19,01,13,19.10
2018,06,19,01,14,19.10
2018,06,19,01,15,19.10
2018,06,19,01,16,19.00
2018,06,19,01,17,19.00
2018,06,19,01,18,18.90
2018,06,19,01,19,18.90
2018,06,19,01,20,18.90
2018,06,19,01,21,18.90
2018,06,19,01,22,18.80
2018,06,19,01,23,18.80
2018,06,19,01,24,18.70
2018,06,19,01,25,18.70
2018,06,19,01,26,18.70
2018,06,19,01,27,18.60
2018,06,19,01,28,18.60
2018,06,19,01,29,18.50
2018,06,19,01,30,18.50
2018,06,19,01,31,18.40
2018,06,19,01,32,18.40
2018,06,19,01,33,18.40
2018,06,19,01,34,18.30
2018,06,19,01,35,18.30
2018,06,19,01,36,18.30
2018,06,19,01,37,18.30
2018,06,19,01,38,18.20
2018,06,19,01,39,18.20
2018,06,19,01,40,18.20
2018,06,19,01,41,18.20
2018,06,19,01,42,18.20
2018,06,19,01,43,18.20
2018,06,19,01,44,18.10
2018,06,19,01,45,18.10
2018,06,19,01,46,18.10
2018,06,19,01,47,18.10
2018,06,19,01,48,18.20
2018,06,19,01,49,18.20
2018,06,19,01,50,18.20
2018,06,19,01,51,18.20
2018,06,19,01,52,18.20
2018,06,19,01,53,18.20
2018,06,19,01,54,18.20
2018,06,19,01,55,18.30
2018,06,19,01,56,18.30
2018,06,19,01,57,18.30
2018,06,19,01,58,18.30
2018,06,19,01,59,18.20
2018,06,19,02,00,18.20
2018,06,19,02,01,18.20
2018,06,19,02,02,18.20
2018,06,19,02,03,18.20
2018,06,19,02,04,18.20
2018,06,19,02,05,18.20
2018,06,19,02,06,18.10
2018,06,19,02,07,18.10
2018,06,19,02,08,18.10
2018,06,19,02,09,18.10
2018,06,19,02,10,18.00
2018,06,19,02,11,18.00
2018,06,19,02,12,17.90
2018,06,19,02,13,17.90
2018,06,19,02,14,17.90
2018,06,19,02,15,17.90
2018,06,19,02,16,17.80
2018,06,19,02,17,17.80
2018,06,19,02,18,17.80
2018,06,19,02,19,17.80
2018,06,19,02,20,17.70
2018,06,19,02,21,17.70
2018,06,19,02,22,17.70
2018,06,19,02,23,17.70
2018,06,19,02,24,17.70
2018,06,19,02,25,17.70
2018,06,19,02,26,17.70
2018,06,19,02,27,17.70
2018,06,19,02,28,17.70
2018,06,19,02,29,17.70
2018,06,19,02,30,17.70
2018,06,19,02,31,17.70
2018,06,19,02,32,17.70
2018,06,19,02,33,17.70
2018,06,19,02,34,17.70
2018,06,19,02,35,17.60
2018,06,19,02,36,17.60
2018,06,19,02,37,17.60
2018,06,19,02,38,17.60
2018,06,19,02,39,17.60
2018,06,19,02,40,17.50
2018,06,19,02,41,17.50
2018,06,19,02,42,17.50
2018,06,19,02,43,17.40
2018,06,19,02,44,17.40
2018,06,19,02,45,17.40
2018,06,19,02,46,17.40
2018,06,19,02,47,17.30
2018,06,19,02,48,17.30
2018,06,19,02,49,17.30
2018,06,19,02,50,17.30
2018,06,19,02,51,17.20
2018,06,19,02,52,17.20
2018,06,19,02,53,17.20
2018,06,19,02,54,17.20
2018,06,19,02,55,17.10
2018,06,19,02,56,17.10
2018,06,19,02,57,17.10
2018,06,19,02,58,17.10
2018,06,19,02,59,17.10
2018,06,19,03,00,17.00
2018,06,19,03,01,17.00
2018,06,19,03,02,17.00
2018,06,19,03,03,17.00
2018,06,19,03,04,17.00
2018,06,19,03,05,16.90
2018,06,19,03,06,16.90
2018,06,19,03,07,16.90
2018,06,19,03,08,16.90
2018,06,19,03,09,16.90
2018,06,19,03,10,16.80
2018,06,19,03,11,16.80
2018,06,19,03,12,16.80
2018,06,19,03,13,16.80
2018,06,19,03,14,16.80
2018,06,19,03,15,16.80
2018,06,19,03,16,16.80
2018,06,19,03,17,16.80
2018,06,19,03,18,16.80
2018,06,19,03,19,16.80
2018,06,19,03,20,16.80
2018,06,19,03,21,16.80
2018,06,19,03,22,16.80
2018,06,19,03,23,16.80
2018,06,19,03,24,16.80
2018,06,19,03,25,16.80
2018,06,19,03,26,16.80
2018,06,19,03,27,16.80
2018,06,19,03,28,16.80
2018,06,19,03,29,16.80
2018,06,19,03,30,16.80
2018,06,19,03,31,16.70
2018,06,19,03,32,16.70
2018,06,19,03,33,16.70
2018,06,19,03,34,16.70
2018,06,19,03,35,16.70
2018,06,19,03,36,16.60
2018,06,19,03,37,16.60
2018,06,19,03,38,16.60
2018,06,19,03,39,16.60
2018,06,19,03,40,16.60
2018,06,19,03,41,16.50
2018,06,19,03,42,16.50
2018,06,19,03,43,16.50
2018,06,19,03,44,16.50
2018,06,19,03,45,16.40
2018,06,19,03,46,16.40
2018,06,19,03,47,16.40
2018,06,19,03,48,16.40
2018,06,19,03,49,16.40
2018,06,19,03,50,16.40
2018,06,19,03,51,16.30
2018,06,19,03,52,16.30
2018,06,19,03,53,16.30
2018,06,19,03,54,16.30
2018,06,19,03,55,16.30
2018,06,19,03,56,16.30
2018,06,19,03,57,16.30
2018,06,19,03,58,16.30
2018,06,19,03,59,16.30
2018,06,19,04,00,16.30
2018,06,19,04,01,16.30
2018,06,19,04,02,16.20
2018,06,19,04,03,16.20
2018,06,19,04,04,16.20
2018,06,19,04,05,16.20
2018,06,19,04,06,16.20
2018,06,19,04,07,16.20
2018,06,19,04,08,16.20
2018,06,19,04,09,16.10
2018,06,19,04,10,16.10
2018,06,19,04,11,16.10
2018,06,19,04,12,16.10
2018,06,19,04,13,16.10
2018,06,19,04,14,16.10
2018,06,19,04,15,16.00
2018,06,19,04,16,16.00
2018,06,19,04,17,16.00
2018,06,19,04,18,15.90
2018,06,19,04,19,15.90
2018,06,19,04,20,15.90
2018,06,19,04,21,15.90
2018,06,19,04,22,15.90
2018,06,19,04,23,15.80
2018,06,19,04,24,15.80
2018,06,19,04,25,15.80
2018,06,19,04,26,15.80
2018,06,19,04,27,15.80
2018,06,19,04,28,15.80
2018,06,19,04,29,15.80
2018,06,19,04,30,15.80
2018,06,19,04,31,15.80
2018,06,19,04,32,15.80
2018,06,19,04,33,15.70
2018,06,19,04,34,15.70
2018,06,19,04,35,15.70
2018,06,19,04,36,15.70
2018,06,19,04,37,15.70
2018,06,19,04,38,15.70
2018,06,19,04,39,15.60
2018,06,19,04,40,15.60
2018,06,19,04,41,15.60
2018,06,19,04,42,15.60
2018,06,19,04,43,15.50
2018,06,19,04,44,15.50
2018,06,19,04,45,15.40
2018,06,19,04,46,15.40
2018,06,19,04,47,15.40
2018,06,19,04,48,15.40
2018,06,19,04,49,15.40
2018,06,19,04,50,15.30
2018,06,19,04,51,15.30
2018,06,19,04,52,15.30
2018,06,19,04,53,15.30
2018,06,19,04,54,15.30
2018,06,19,04,55,15.20
2018,06,19,04,56,15.20
2018,06,19,04,57,15.20
2018,06,19,04,58,15.20
2018,06,19,04,59,15.20
2018,06,19,05,00,15.10
2018,06,19,05,01,15.10
2018,06,19,05,02,15.10
2018,06,19,05,03,15.10
2018,06,19,05,04,15.10
2018,06,19,05,05,15.10
2018,06,19,05,06,15.10
2018,06,19,05,07,15.10
2018,06,19,05,08,15.10
2018,06,19,05,09,15.00
2018,06,19,05,10,15.00
2018,06,19,05,11,15.00
2018,06,19,05,12,15.00
2018,06,19,05,13,15.00
2018,06,19,05,14,15.00
2018,06,19,05,15,15.00
2018,06,19,05,16,15.00
2018,06,19,05,17,15.00
2018,06,19,05,18,15.00
2018,06,19,05,19,15.00
2018,06,19,05,20,15.00
2018,06,19,05,21,15.00
2018,06,19,05,22,15.00
2018,06,19,05,23,15.00
2018,06,19,05,24,15.00
2018,06,19,05,25,15.00
2018,06,19,05,26,15.00
2018,06,19,05,27,15.00
2018,06,19,05,28,15.00
2018,06,19,05,29,15.00
2018,06,19,05,30,15.00
2018,06,19,05,31,15.00
2018,06,19,05,32,15.00
2018,06,19,05,33,15.00
2018,06,19,05,34,15.00
2018,06,19,05,35,15.00
2018,06,19,05,36,15.00
2018,06,19,05,37,15.00
2018,06,19,05,38,14.90
2018,06,19,05,39,14.90
2018,06,19,05,40,14.90
2018,06,19,05,41,14.90
2018,06,19,05,42,14.90
2018,06,19,05,43,14.90
2018,06,19,05,44,14.80
2018,06,19,05,45,14.80
2018,06,19,05,46,14.80
2018,06,19,05,47,14.80
2018,06,19,05,48,14.80
2018,06,19,05,49,14.80
2018,06,19,05,50,14.80
2018,06,19,05,51,14.80
2018,06,19,05,52,14.80
2018,06,19,05,53,14.80
2018,06,19,05,54,14.70
2018,06,19,05,55,14.70
2018,06,19,05,56,14.70
2018,06,19,05,57,14.70
2018,06,19,05,58,14.70
2018,06,19,05,59,14.70
2018,06,19,06,00,14.70
2018,06,19,06,01,14.70
2018,06,19,06,02,14.70
2018,06,19,06,03,14.70
2018,06,19,06,04,14.70
2018,06,19,06,05,14.70
2018,06,19,06,06,14.70
2018,06,19,06,07,14.60
2018,06,19,06,08,14.60
2018,06,19,06,09,14.60
2018,06,19,06,10,14.60
2018,06,19,06,11,14.60
2018,06,19,06,12,14.60
2018,06,19,06,13,14.60
2018,06,19,06,14,14.60
2018,06,19,06,15,14.60
2018,06,19,06,16,14.60
2018,06,19,06,17,14.60
2018,06,19,06,18,14.60
2018,06,19,06,19,14.60
2018,06,19,06,20,14.60
2018,06,19,06,21,14.60
2018,06,19,06,22,14.70
2018,06,19,06,23,14.60
2018,06,19,06,24,14.70
2018,06,19,06,25,14.70
2018,06,19,06,26,14.70
2018,06,19,06,27,14.70
2018,06,19,06,28,14.70
2018,06,19,06,29,14.70
2018,06,19,06,30,14.70
2018,06,19,06,31,14.70
2018,06,19,06,32,14.70
2018,06,19,06,33,14.70
2018,06,19,06,34,14.70
2018,06,19,06,35,14.70
2018,06,19,06,36,14.70
2018,06,19,06,37,14.70
2018,06,19,06,38,14.70
2018,06,19,06,39,14.70
2018,06,19,06,40,14.70
2018,06,19,06,41,14.70
2018,06,19,06,42,14.70
2018,06,19,06,43,14.70
2018,06,19,06,44,14.70
2018,06,19,06,45,14.70
2018,06,19,06,46,14.70
2018,06,19,06,47,14.70
2018,06,19,06,48,14.70
2018,06,19,06,49,14.70
2018,06,19,06,50,14.70
2018,06,19,06,51,14.70
2018,06,19,06,52,14.70
2018,06,19,06,53,14.70
2018,06,19,06,54,14.70
2018,06,19,06,55,14.70
2018,06,19,06,56,14.70
2018,06,19,06,57,14.70
2018,06,19,06,58,14.70
2018,06,19,06,59,14.70
2018,06,19,07,00,14.70
2018,06,19,07,01,14.70
2018,06,19,07,02,14.70
2018,06,19,07,03,14.70
2018,06,19,07,04,14.70
2018,06,19,07,05,14.70
2018,06,19,07,06,14.70
2018,06,19,07,07,14.70
2018,06,19,07,08,14.70
2018,06,19,07,09,14.70
2018,06,19,07,10,14.70
2018,06,19,07,11,14.70
2018,06,19,07,12,14.80
2018,06,19,07,13,14.80
2018,06,19,07,14,14.80
2018,06,19,07,15,14.80
2018,06,19,07,16,14.80
2018,06,19,07,17,14.80
2018,06,19,07,18,14.80
2018,06,19,07,19,14.80
2018,06,19,07,20,14.80
2018,06,19,07,21,14.80
2018,06,19,07,22,14.80
2018,06,19,07,23,14.80
2018,06,19,07,24,14.90
2018,06,19,07,25,14.90
2018,06,19,07,26,14.90
2018,06,19,07,27,15.00
2018,06,19,07,28,15.00
2018,06,19,07,29,15.00
2018,06,19,07,30,15.00
2018,06,19,07,31,15.00
2018,06,19,07,32,15.00
2018,06,19,07,33,15.00
2018,06,19,07,34,15.00
2018,06,19,07,35,15.00
2018,06,19,07,36,15.00
2018,06,19,07,37,15.00
2018,06,19,07,38,15.00
2018,06,19,07,39,15.00
2018,06,19,07,40,15.00
2018,06,19,07,41,15.00
2018,06,19,07,42,15.00
2018,06,19,07,43,15.00
2018,06,19,07,44,15.00
2018,06,19,07,45,15.00
2018,06,19,07,46,15.10
2018,06,19,07,47,15.10
2018,06,19,07,48,15.10
2018,06,19,07,49,15.20
2018,06,19,07,50,15.20
2018,06,19,07,51,15.20
2018,06,19,07,52,15.30
2018,06,19,07,53,15.30
2018,06,19,07,54,15.30
2018,06,19,07,55,15.40
2018,06,19,07,56,15.40
2018,06,19,07,57,15.40
2018,06,19,07,58,15.40
2018,06,19,07,59,15.50
2018,06,19,08,00,15.50
2018,06,19,08,01,15.60
2018,06,19,08,02,15.60
2018,06,19,08,03,15.60
2018,06,19,08,04,15.60
2018,06,19,08,05,15.70
2018,06,19,08,06,15.70
2018,06,19,08,07,15.70
2018,06,19,08,08,15.70
2018,06,19,08,09,15.80
2018,06,19,08,10,15.80
2018,06,19,08,11,15.80
2018,06,19,08,12,15.80
2018,06,19,08,13,15.90
2018,06,19,08,14,15.90
2018,06,19,08,15,15.90
2018,06,19,08,16,15.90
2018,06,19,08,17,16.00
2018,06,19,08,18,16.00
2018,06,19,08,19,16.10
2018,06,19,08,20,16.10
2018,06,19,08,21,16.10
2018,06,19,08,22,16.20
2018,06,19,08,23,16.20
2018,06,19,08,24,16.30
2018,06,19,08,25,16.30
2018,06,19,08,26,16.30
2018,06,19,08,27,16.30
2018,06,19,08,28,16.40
2018,06,19,08,29,16.40
2018,06,19,08,30,16.40
2018,06,19,08,31,16.50
2018,06,19,08,32,16.50
2018,06,19,08,33,16.60
2018,06,19,08,34,16.60
2018,06,19,08,35,16.60
2018,06,19,08,36,16.70
2018,06,19,08,37,16.70
2018,06,19,08,38,16.80
2018,06,19,08,39,16.90
2018,06,19,08,40,17.00
2018,06,19,08,41,17.00
2018,06,19,08,42,17.10
2018,06,19,08,43,17.20
2018,06,19,08,44,17.30
2018,06,19,08,45,17.30
2018,06,19,08,46,17.40
2018,06,19,08,47,17.40
2018,06,19,08,48,17.40
2018,06,19,08,49,17.50
2018,06,19,08,50,17.60
2018,06,19,08,51,17.70
2018,06,19,08,52,17.80
2018,06,19,08,53,17.90
2018,06,19,08,54,18.00
2018,06,19,08,55,18.00
2018,06,19,08,56,18.10
2018,06,19,08,57,18.20
2018,06,19,08,58,18.30
2018,06,19,08,59,18.30
2018,06,19,09,00,18.40
2018,06,19,09,01,18.40
2018,06,19,09,02,18.50
2018,06,19,09,03,18.50
2018,06,19,09,04,18.60
2018,06,19,09,05,18.60
2018,06,19,09,06,18.60
2018,06,19,09,07,18.60
2018,06,19,09,08,18.70
2018,06,19,09,09,18.70
2018,06,19,09,10,18.70
2018,06,19,09,11,18.80
2018,06,19,09,12,18.80
2018,06,19,09,13,18.80
2018,06,19,09,14,18.80
2018,06,19,09,15,18.80
2018,06,19,09,16,18.90
2018,06,19,09,17,18.90
2018,06,19,09,18,18.90
2018,06,19,09,19,18.90
2018,06,19,09,20,19.00
2018,06,19,09,21,19.00
2018,06,19,09,22,19.10
2018,06,19,09,23,19.10
2018,06,19,09,24,19.10
2018,06,19,09,25,19.20
2018,06,19,09,26,19.20
2018,06,19,09,27,19.30
2018,06,19,09,28,19.30
2018,06,19,09,29,19.30
2018,06,19,09,30,19.30
2018,06,19,09,31,19.40
2018,06,19,09,32,19.40
2018,06,19,09,33,19.50
2018,06,19,09,34,19.50
2018,06,19,09,35,19.60
2018,06,19,09,36,19.60
2018,06,19,09,37,19.60
2018,06,19,09,38,19.70
2018,06,19,09,39,19.70
2018,06,19,09,40,19.70
2018,06,19,09,41,19.80
2018,06,19,09,42,19.80
2018,06,19,09,43,19.80
2018,06,19,09,44,19.90
2018,06,19,09,45,19.90
2018,06,19,09,46,20.00
2018,06,19,09,47,20.10
2018,06,19,09,48,20.10
2018,06,19,09,49,20.10
2018,06,19,09,50,20.20
2018,06,19,09,51,20.20
2018,06,19,09,52,20.20
2018,06,19,09,53,20.30
2018,06,19,09,54,20.30
2018,06,19,09,55,20.30
2018,06,19,09,56,20.30
2018,06,19,09,57,20.30
2018,06,19,09,58,20.40
2018,06,19,09,59,20.40
2018,06,19,10,00,20.40
2018,06,19,10,01,20.40
2018,06,19,10,02,20.40
2018,06,19,10,03,20.40
2018,06,19,10,04,20.40
2018,06,19,10,05,20.40
2018,06,19,10,06,20.40
2018,06,19,10,07,20.40
2018,06,19,10,08,20.30
2018,06,19,10,09,20.40
2018,06,19,10,10,20.40
2018,06,19,10,11,20.40
2018,06,19,10,12,20.40
2018,06,19,10,13,20.50
2018,06,19,10,14,20.50
2018,06,19,10,15,20.50
2018,06,19,10,16,20.50
2018,06,19,10,17,20.50
2018,06,19,10,18,20.60
2018,06,19,10,19,20.60
2018,06,19,10,20,20.60
2018,06,19,10,21,20.60
2018,06,19,10,22,20.60
2018,06,19,10,23,20.60
2018,06,19,10,24,20.60
2018,06,19,10,25,20.60
2018,06,19,10,26,20.60
2018,06,19,10,27,20.60
2018,06,19,10,28,20.60
2018,06,19,10,29,20.60
2018,06,19,10,30,20.60
2018,06,19,10,31,20.60
2018,06,19,10,32,20.60
2018,06,19,10,33,20.60
2018,06,19,10,34,20.60
2018,06,19,10,35,20.60
2018,06,19,10,36,20.60
2018,06,19,10,37,20.60
2018,06,19,10,38,20.60
2018,06,19,10,39,20.60
2018,06,19,10,40,20.70
2018,06,19,10,41,20.70
2018,06,19,10,42,20.80
2018,06,19,10,43,20.80
2018,06,19,10,44,20.80
2018,06,19,10,45,20.90
2018,06,19,10,46,20.90
2018,06,19,10,47,20.90
2018,06,19,10,48,20.90
2018,06,19,10,49,21.00
2018,06,19,10,50,21.00
2018,06,19,10,51,21.10
2018,06,19,10,52,21.10
2018,06,19,10,53,21.20
2018,06,19,10,54,21.30
2018,06,19,10,55,21.30
2018,06,19,10,56,21.30
2018,06,19,10,57,21.40
2018,06,19,10,58,21.40
2018,06,19,10,59,21.40
2018,06,19,11,00,21.30
2018,06,19,11,01,21.30
2018,06,19,11,02,21.30
2018,06,19,11,03,21.30
2018,06,19,11,04,21.30
2018,06,19,11,05,21.40
2018,06,19,11,06,21.40
2018,06,19,11,07,21.40
2018,06,19,11,08,21.40
2018,06,19,11,09,21.50
2018,06,19,11,10,21.50
2018,06,19,11,11,21.60
2018,06,19,11,12,21.70
2018,06,19,11,13,21.80
2018,06,19,11,14,21.80
2018,06,19,11,15,21.80
2018,06,19,11,16,21.80
2018,06,19,11,17,21.90
2018,06,19,11,18,21.90
2018,06,19,11,19,21.90
2018,06,19,11,20,21.90
2018,06,19,11,21,21.90
2018,06,19,11,22,21.90
2018,06,19,11,23,21.90
2018,06,19,11,24,21.90
2018,06,19,11,25,21.80
2018,06,19,11,26,21.80
2018,06,19,11,27,21.80
2018,06,19,11,28,21.80
2018,06,19,11,29,21.80
2018,06,19,11,30,21.80
2018,06,19,11,31,21.80
2018,06,19,11,32,21.90
2018,06,19,11,33,21.90
2018,06,19,11,34,21.90
2018,06,19,11,35,21.90
2018,06,19,11,36,22.00
2018,06,19,11,37,22.00
2018,06,19,11,38,22.00
2018,06,19,11,39,22.00
2018,06,19,11,40,22.10
2018,06,19,11,41,22.10
2018,06,19,11,42,22.10
2018,06,19,11,43,22.20
2018,06,19,11,44,22.20
2018,06,19,11,45,22.20
2018,06,19,11,46,22.20
2018,06,19,11,47,22.20
2018,06,19,11,48,22.20
2018,06,19,11,49,22.10
2018,06,19,11,50,22.10
2018,06,19,11,51,22.10
2018,06,19,11,52,22.10
2018,06,19,11,53,22.10
2018,06,19,11,54,22.10
2018,06,19,11,55,22.10
2018,06,19,11,56,22.20
2018,06,19,11,57,22.20
2018,06,19,11,58,22.30
2018,06,19,11,59,22.30
2018,06,19,12,00,22.30
2018,06,19,12,01,22.30
2018,06,19,12,02,22.40
2018,06,19,12,03,22.40
2018,06,19,12,04,22.50
2018,06,19,12,05,22.60
2018,06,19,12,06,22.60
2018,06,19,12,07,22.60
2018,06,19,12,08,22.70
2018,06,19,12,09,22.70
2018,06,19,12,10,22.70
2018,06,19,12,11,22.80
2018,06,19,12,12,22.80
2018,06,19,12,13,22.90
2018,06,19,12,14,22.90
2018,06,19,12,15,23.00
2018,06,19,12,16,23.00
2018,06,19,12,17,22.90
2018,06,19,12,18,22.90
2018,06,19,12,19,22.80
2018,06,19,12,20,22.70
2018,06,19,12,21,22.60
2018,06,19,12,22,22.60
2018,06,19,12,23,22.50
2018,06,19,12,24,22.40
2018,06,19,12,25,22.30
2018,06,19,12,26,22.20
2018,06,19,12,27,22.10
2018,06,19,12,28,22.00
2018,06,19,12,29,22.00
2018,06,19,12,30,22.00
2018,06,19,12,31,22.00
2018,06,19,12,32,22.00
2018,06,19,12,33,22.00
2018,06,19,12,34,22.00
2018,06,19,12,35,22.00
2018,06,19,12,36,22.10
2018,06,19,12,37,22.10
2018,06,19,12,38,22.10
2018,06,19,12,39,22.10
2018,06,19,12,40,22.20
2018,06,19,12,41,22.10
2018,06,19,12,42,22.10
2018,06,19,12,43,22.10
2018,06,19,12,44,22.10
2018,06,19,12,45,22.10
2018,06,19,12,46,22.10
2018,06,19,12,47,22.10
2018,06,19,12,48,22.20
2018,06,19,12,49,22.20
2018,06,19,12,50,22.20
2018,06,19,12,51,22.30
2018,06,19,12,52,22.30
2018,06,19,12,53,22.30
2018,06,19,12,54,22.30
2018,06,19,12,55,22.40
2018,06,19,12,56,22.30
2018,06,19,12,57,22.30
2018,06,19,12,58,22.30
2018,06,19,12,59,22.30
2018,06,19,13,00,22.30
2018,06,19,13,01,22.40
2018,06,19,13,02,22.40
2018,06,19,13,03,22.40
2018,06,19,13,04,22.50
2018,06,19,13,05,22.60
2018,06,19,13,06,22.60
2018,06,19,13,07,22.60
2018,06,19,13,08,22.70
2018,06,19,13,09,22.70
2018,06,19,13,10,22.80
2018,06,19,13,11,22.90
2018,06,19,13,12,22.90
2018,06,19,13,13,23.00
2018,06,19,13,14,23.00
2018,06,19,13,15,23.10
2018,06,19,13,16,23.10
2018,06,19,13,17,23.10
2018,06,19,13,18,23.10
2018,06,19,13,19,23.10
2018,06,19,13,20,23.20
2018,06,19,13,21,23.10
2018,06,19,13,22,23.10
2018,06,19,13,23,23.10
2018,06,19,13,24,23.20
2018,06,19,13,25,23.20
2018,06,19,13,26,23.20
2018,06,19,13,27,23.20
2018,06,19,13,28,23.20
2018,06,19,13,29,23.20
2018,06,19,13,30,23.20
2018,06,19,13,31,23.20
2018,06,19,13,32,23.20
2018,06,19,13,33,23.20
2018,06,19,13,34,23.30
2018,06,19,13,35,23.30
2018,06,19,13,36,23.40
2018,06,19,13,37,23.40
2018,06,19,13,38,23.50
2018,06,19,13,39,23.60
2018,06,19,13,40,23.60
2018,06,19,13,41,23.70
2018,06,19,13,42,23.70
2018,06,19,13,43,23.80
2018,06,19,13,44,23.80
2018,06,19,13,45,23.90
2018,06,19,13,46,24.00
2018,06,19,13,47,24.10
2018,06,19,13,48,24.10
2018,06,19,13,49,24.20
2018,06,19,13,50,24.20
2018,06,19,13,51,24.20
2018,06,19,13,52,24.20
2018,06,19,13,53,24.20
2018,06,19,13,54,24.20
2018,06,19,13,55,24.20
2018,06,19,13,56,24.20
2018,06,19,13,57,24.10
2018,06,19,13,58,24.10
2018,06,19,13,59,24.10
2018,06,19,14,00,24.00
2018,06,19,14,01,23.90
2018,06,19,14,02,23.90
2018,06,19,14,03,23.80
2018,06,19,14,04,23.80
2018,06,19,14,05,23.80
2018,06,19,14,06,23.70
2018,06,19,14,07,23.70
2018,06,19,14,08,23.60
2018,06,19,14,09,23.60
2018,06,19,14,10,23.50
2018,06,19,14,11,23.50
2018,06,19,14,12,23.50
2018,06,19,14,13,23.50
2018,06,19,14,14,23.60
2018,06,19,14,15,23.60
2018,06,19,14,16,23.70
2018,06,19,14,17,23.80
2018,06,19,14,18,23.80
2018,06,19,14,19,23.90
2018,06,19,14,20,24.00
2018,06,19,14,21,24.10
2018,06,19,14,22,24.10
2018,06,19,14,23,24.10
2018,06,19,14,24,24.20
2018,06,19,14,25,24.30
2018,06,19,14,26,24.30
2018,06,19,14,27,24.40
2018,06,19,14,28,24.40
2018,06,19,14,29,24.50
2018,06,19,14,30,24.50
2018,06,19,14,31,24.60
2018,06,19,14,32,24.70
2018,06,19,14,33,24.80
2018,06,19,14,34,25.00
2018,06,19,14,35,25.10
2018,06,19,14,36,25.20
2018,06,19,14,37,25.30
2018,06,19,14,38,25.50
2018,06,19,14,39,25.60
2018,06,19,14,40,25.60
2018,06,19,14,41,25.70
2018,06,19,14,42,25.80
2018,06,19,14,43,25.80
2018,06,19,14,44,25.80
2018,06,19,14,45,25.80
2018,06,19,14,46,25.70
2018,06,19,14,47,25.60
2018,06,19,14,48,25.50
2018,06,19,14,49,25.30
2018,06,19,14,50,25.20
2018,06,19,14,51,25.00
2018,06,19,14,52,24.80
2018,06,19,14,53,24.70
2018,06,19,14,54,24.60
2018,06,19,14,55,24.60
2018,06,19,14,56,24.60
2018,06,19,14,57,24.60
2018,06,19,14,58,24.60
2018,06,19,14,59,24.60
2018,06,19,15,00,24.60
2018,06,19,15,01,24.70
2018,06,19,15,02,24.70
2018,06,19,15,03,24.80
2018,06,19,15,04,24.80
2018,06,19,15,05,24.80
2018,06,19,15,06,24.80
2018,06,19,15,07,24.80
2018,06,19,15,08,24.80
2018,06,19,15,09,24.80
2018,06,19,15,10,24.90
2018,06,19,15,11,25.00
2018,06,19,15,12,25.10
2018,06,19,15,13,25.20
2018,06,19,15,14,25.30
2018,06,19,15,15,25.40
2018,06,19,15,16,25.40
2018,06,19,15,17,25.40
2018,06,19,15,18,25.50
2018,06,19,15,19,25.50
2018,06,19,15,20,25.60
2018,06,19,15,21,25.70
2018,06,19,15,22,25.80
2018,06,19,15,23,25.90
2018,06,19,15,24,25.90
2018,06,19,15,25,25.90
2018,06,19,15,26,25.90
2018,06,19,15,27,25.90
2018,06,19,15,28,25.90
2018,06,19,15,29,25.90
2018,06,19,15,30,25.90
2018,06,19,15,31,25.90
2018,06,19,15,32,25.90
2018,06,19,15,33,26.10
2018,06,19,15,34,26.20
2018,06,19,15,35,26.20
2018,06,19,15,36,26.30
2018,06,19,15,37,26.40
2018,06,19,15,38,26.50
2018,06,19,15,39,26.60
2018,06,19,15,40,26.70
2018,06,19,15,41,26.70
2018,06,19,15,42,26.70
2018,06,19,15,43,26.70
2018,06,19,15,44,26.70
2018,06,19,15,45,26.70
2018,06,19,15,46,26.80
2018,06,19,15,47,26.80
2018,06,19,15,48,26.80
2018,06,19,15,49,26.80
2018,06,19,15,50,26.80
2018,06,19,15,51,26.90
2018,06,19,15,52,26.90
2018,06,19,15,53,26.80
2018,06,19,15,54,26.70
2018,06,19,15,55,26.70
2018,06,19,15,56,26.70
2018,06,19,15,57,26.60
2018,06,19,15,58,26.70
2018,06,19,15,59,26.70
2018,06,19,16,00,26.70
2018,06,19,16,01,26.60
2018,06,19,16,02,26.60
2018,06,19,16,03,26.50
2018,06,19,16,04,26.40
2018,06,19,16,05,26.30
2018,06,19,16,06,26.30
2018,06,19,16,07,26.30
2018,06,19,16,08,26.40
2018,06,19,16,09,26.40
2018,06,19,16,10,26.40
2018,06,19,16,11,26.40
2018,06,19,16,12,26.50
2018,06,19,16,13,26.50
2018,06,19,16,14,26.60
2018,06,19,16,15,26.60
2018,06,19,16,16,26.60
2018,06,19,16,17,26.60
2018,06,19,16,18,26.70
2018,06,19,16,19,26.80
2018,06,19,16,20,26.80
2018,06,19,16,21,26.80
2018,06,19,16,22,26.90
2018,06,19,16,23,26.90
2018,06,19,16,24,27.00
2018,06,19,16,25,27.10
2018,06,19,16,26,27.20
2018,06,19,16,27,27.20
2018,06,19,16,28,27.20
2018,06,19,16,29,27.30
2018,06,19,16,30,27.30
2018,06,19,16,31,27.30
2018,06,19,16,32,27.30
2018,06,19,16,33,27.30
2018,06,19,16,34,27.30
2018,06,19,16,35,27.30
2018,06,19,16,36,27.30
2018,06,19,16,37,27.20
2018,06,19,16,38,27.10
2018,06,19,16,39,26.90
2018,06,19,16,40,26.80
2018,06,19,16,41,26.70
2018,06,19,16,42,26.60
2018,06,19,16,43,26.50
2018,06,19,16,44,26.40
2018,06,19,16,45,26.40
2018,06,19,16,46,26.30
2018,06,19,16,47,26.30
2018,06,19,16,48,26.30
2018,06,19,16,49,26.30
2018,06,19,16,50,26.30
2018,06,19,16,51,26.30
2018,06,19,16,52,26.40
2018,06,19,16,53,26.30
2018,06,19,16,54,26.40
2018,06,19,16,55,26.40
2018,06,19,16,56,26.40
2018,06,19,16,57,26.40
2018,06,19,16,58,26.40
2018,06,19,16,59,26.50
2018,06,19,17,00,26.50
2018,06,19,17,01,26.60
2018,06,19,17,02,26.70
2018,06,19,17,03,26.80
2018,06,19,17,04,26.80
2018,06,19,17,05,26.90
2018,06,19,17,06,27.00
2018,06,19,17,07,27.10
2018,06,19,17,08,27.20
2018,06,19,17,09,27.30
2018,06,19,17,10,27.30
2018,06,19,17,11,27.30
2018,06,19,17,12,27.30
2018,06,19,17,13,27.40
2018,06,19,17,14,27.30
2018,06,19,17,15,27.30
2018,06,19,17,16,27.20
2018,06,19,17,17,27.20
2018,06,19,17,18,27.20
2018,06,19,17,19,27.10